Theta_e
316 316 316 316 315 315 315 315 315 314 314 314 316 316 315 316 314 313 314 316 317 317 318 318 318 317 315 312 311 308 310 310 315 315 316 315 316 314 319 342 346 347 347 345 346
315 315 315 315 315 316 315 315 314 314 314 314 315 316 316 316 315 316 317 316 316 318 316 316 316 315 314 314 310 310 308 311 311 314 316 315 314 314 315 322 347 350 346 346 345
314 315 315 315 316 316 315 315 314 314 313 314 315 316 316 316 314 312 314 315 316 317 316 315 315 316 316 314 313 310 311 312 313 314 313 313 313 314 316 316 339 348 348 346 345
314 315 315 315 315 316 316 315 314 313 313 313 315 317 318 317 309 316 316 315 316 317 316 316 317 319 318 317 315 316 313 313 313 314 314 314 314 314 314 316 327 339 345 346 346
316 315 316 316 316 316 316 315 314 312 312 314 318 318 318 318 317 312 314 316 317 316 315 316 317 318 318 317 315 314 314 315 314 315 313 313 313 314 315 314 322 342 345 346 346
319 318 318 317 317 316 315 314 313 313 314 316 319 317 317 319 314 314 316 315 314 315 315 315 316 317 319 318 317 314 314 314 315 314 314 315 313 313 315 313 324 346 346 346 346
318 318 317 317 316 315 314 313 313 315 317 319 318 318 317 318 313 312 313 314 315 316 316 316 317 319 319 320 318 316 316 316 318 316 315 314 314 314 314 312 316 344 346 345 345
316 316 315 315 314 313 313 314 316 318 319 318 318 318 318 316 316 316 316 317 316 317 318 317 317 317 318 317 317 317 316 318 317 316 316 317 317 315 315 311 311 335 342 346 344
318 316 315 314 314 313 314 317 320 320 319 318 317 316 318 316 318 315 319 318 320 319 318 318 318 318 319 320 319 317 320 318 318 317 317 315 316 316 316 312 312 316 339 343 344
321 319 318 316 315 316 318 320 320 319 318 315 314 315 315 316 316 317 317 320 320 320 320 319 319 317 318 320 325 322 319 317 317 318 316 318 315 316 316 311 311 311 329 340 342
322 321 320 318 317 318 321 321 318 317 314 317 314 315 316 316 315 316 318 320 321 321 320 319 320 322 321 321 322 319 318 318 317 317 318 319 319 318 317 315 315 311 308 332 339
322 321 321 320 318 320 321 320 318 314 319 314 318 314 314 314 316 315 316 318 322 323 319 318 319 321 319 320 319 317 317 318 317 318 319 318 319 317 316 317 317 315 311 308 316
323 322 322 321 319 320 319 319 317 317 320 319 316 317 318 317 319 319 317 317 319 319 319 321 320 316 317 318 318 317 317 318 319 318 317 318 321 319 319 318 318 315 315 316 309
322 322 322 320 319 317 316 318 318 316 322 322 319 318 317 318 319 317 318 319 320 320 317 318 317 318 317 318 317 319 317 318 318 319 323 321 327 324 322 321 318 317 318 320 319
321 321 321 319 316 315 317 317 316 316 328 320 320 317 317 318 319 318 317 318 321 320 318 321 318 318 319 319 318 320 319 319 321 323 323 324 325 323 321 322 320 319 319 317 317
322 320 320 316 314 315 316 315 314 321 324 320 320 321 319 319 320 318 319 318 318 320 321 321 318 317 318 319 319 321 323 322 320 322 328 324 326 325 319 320 321 319 318 317 318
321 319 319 316 312 313 313 313 318 322 318 321 318 320 321 323 322 321 322 322 323 325 325 323 324 322 322 324 322 322 324 330 327 327 331 324 325 326 320 320 319 319 317 316 317
320 318 317 316 315 313 313 315 320 320 319 317 320 319 320 320 322 322 319 323 321 319 322 327 327 323 321 324 324 323 325 328 332 327 325 320 327 322 319 318 317 317 317 316 317
318 315 311 313 314 313 314 317 320 319 317 318 320 321 318 315 318 322 323 318 319 319 321 323 324 319 319 321 322 324 326 323 326 326 327 321 323 321 320 319 318 319 318 316 316
310 308 304 308 311 312 317 320 318 314 316 316 320 320 321 317 318 321 322 321 321 317 318 320 324 316 314 317 320 320 322 327 328 333 334 328 323 323 322 320 319 319 319 319 316
308 308 303 306 309 313 315 317 317 314 314 316 317 317 320 317 316 316 318 317 316 318 317 318 316 317 315 314 313 318 322 323 325 325 323 326 322 318 320 318 317 316 316 316 315
304 305 301 305 309 302 307 309 312 313 314 315 315 314 314 316 316 315 316 315 313 312 315 315 318 322 317 313 313 314 322 322 324 328 325 323 320 316 314 313 313 313 315 315 314
300 299 300 302 308 304 305 309 311 313 314 315 316 315 312 316 318 315 315 314 312 312 314 312 313 315 315 313 315 317 315 318 317 318 325 325 323 315 314 314 312 311 311 311 313
299 302 299 299 296 303 307 307 310 310 311 312 312 314 314 315 313 314 315 314 314 313 315 314 315 313 316 313 313 317 315 315 315 312 313 315 318 317 315 315 313 311 310 309 308
299 300 301 302 301 302 304 305 308 309 304 303 309 312 314 315 316 316 313 313 312 313 314 313 315 315 315 313 314 315 315 315 315 315 320 317 317 315 315 315 314 313 312 312 311
299 299 300 301 302 303 302 305 304 305 303 306 307 305 306 313 310 312 310 310 312 310 312 311 313 311 313 312 313 314 313 312 311 312 313 312 312 310 310 311 313 312 312 311 310
298 298 297 301 300 303 302 303 304 303 303 303 305 303 303 304 302 302 302 302 303 307 312 312 311 312 315 312 312 315 313 311 311 312 312 313 311 309 309 310 310 311 311 310 308
Wind_Speed
17 14 12 11 10 10 10 11 12 13 15 18 21 24 27 30 32 29 5 1 3 7 13 15 9 11 4 2 1 3 2 2 4 5 7 5 7 4 4 2 1 3 6 8 29
18 17 15 13 12 11 10 12 13 13 15 17 21 24 26 28 28 11 4 5 7 11 12 10 7 11 4 1 1 4 3 8 7 4 6 13 4 11 4 2 2 3 8 23 31
20 18 16 14 13 12 11 11 13 14 15 17 19 23 24 22 6 3 5 9 11 11 9 9 7 3 3 2 2 3 6 4 5 8 6 6 6 6 5 7 5 5 11 15 20
21 19 18 15 14 12 12 12 12 13 14 15 18 21 20 7 6 2 3 17 11 9 7 6 4 4 2 4 2 4 7 5 6 2 5 5 5 6 7 11 5 8 18 17 17
22 20 18 16 15 13 12 12 12 12 13 15 16 18 9 4 10 14 18 10 6 10 4 4 3 3 3 5 6 6 6 5 6 13 6 7 9 8 11 10 6 8 17 19 17
22 20 19 17 15 14 13 12 12 13 11 11 13 15 3 5 8 8 8 14 22 15 5 1 3 2 4 4 3 5 6 10 9 6 8 9 7 6 10 5 6 11 17 19 22
23 21 20 18 16 15 13 13 11 13 10 9 10 11 4 18 14 19 27 32 26 12 4 6 3 2 1 7 2 6 9 11 12 5 7 5 5 8 12 8 8 13 15 17 19
24 22 20 19 17 15 13 13 11 13 9 11 11 7 8 20 21 27 24 29 26 25 23 18 11 4 4 4 6 5 4 4 3 2 6 3 9 16 15 5 12 12 11 16 17
24 23 21 20 18 16 14 12 11 11 11 13 9 2 10 8 8 7 8 12 6 5 16 11 7 6 3 3 4 4 7 5 7 6 7 4 5 11 11 8 13 10 12 13 16
23 24 21 20 18 16 12 10 7 10 9 6 4 3 6 6 5 5 10 12 1 1 4 6 5 6 3 5 9 6 5 4 5 5 5 12 10 13 11 7 10 7 8 13 15
26 23 21 21 17 16 13 4 2 3 6 10 8 5 1 8 12 5 5 2 4 4 7 5 5 12 21 17 11 2 5 11 10 17 6 12 15 16 16 7 8 8 7 9 14
25 24 24 22 20 18 15 3 2 2 10 19 21 19 30 16 8 13 3 4 7 8 4 1 14 11 7 10 10 8 10 13 13 17 6 11 14 12 10 9 6 7 7 8 8
21 27 27 25 22 21 17 7 4 2 5 7 12 11 12 17 16 19 7 6 9 8 9 13 5 15 11 12 8 9 10 10 12 17 14 8 10 6 6 4 5 7 7 3 8
27 25 26 26 19 15 5 18 11 3 4 5 5 6 8 7 7 13 36 13 9 18 6 13 11 10 6 10 12 14 9 13 13 8 10 1 6 1 7 8 6 8 8 11 14
31 26 25 29 13 9 5 19 13 5 4 5 5 5 9 8 7 2 13 13 15 7 9 9 7 16 18 22 12 7 8 10 13 9 5 5 5 5 2 8 4 7 9 10 12
37 33 30 25 11 10 17 24 11 3 9 3 7 6 7 7 5 4 3 3 6 8 10 13 3 7 7 5 9 2 4 4 3 2 10 8 6 5 5 4 0 4 6 9 12
39 36 37 28 11 22 32 10 1 5 4 3 5 7 5 6 5 3 6 9 6 8 18 13 19 6 5 5 7 6 3 2 3 3 11 11 8 15 4 2 3 3 5 6 11
37 34 36 28 22 36 16 3 9 7 15 4 3 1 7 7 6 7 7 6 11 3 1 11 6 19 12 27 12 14 12 6 6 4 4 3 6 4 4 4 5 5 5 8 10
31 30 18 27 31 38 6 6 10 10 4 4 3 3 3 6 5 7 9 6 8 14 7 4 6 4 7 24 22 15 14 12 5 2 1 4 3 3 1 3 4 6 6 7 10
19 8 4 14 37 24 9 11 10 6 2 3 7 6 4 2 8 8 6 6 12 12 10 4 4 3 3 5 8 7 9 5 4 7 6 5 5 5 10 9 5 6 7 6 4
8 3 5 3 19 7 9 8 11 8 4 5 5 3 3 2 3 3 3 2 3 7 15 10 3 5 2 4 8 4 2 5 4 2 4 2 5 2 10 11 10 6 5 5 6
4 3 4 3 6 2 3 4 3 4 11 2 3 3 4 3 1 3 2 3 5 3 6 7 4 11 9 2 1 2 5 5 5 5 2 2 4 2 5 5 4 6 5 4 5
2 2 4 5 3 2 3 2 1 1 3 5 5 6 4 6 3 6 4 4 8 5 1 3 3 2 2 2 1 2 3 3 6 4 6 4 3 4 7 7 7 7 6 6 6
2 2 2 2 0 2 3 4 4 1 10 4 3 7 6 7 9 5 6 3 9 9 17 8 1 3 9 4 3 2 2 3 5 4 4 5 3 6 9 10 10 11 10 10 10
2 1 1 3 3 4 2 1 3 1 3 7 3 7 7 4 5 8 6 5 8 2 4 2 2 6 12 7 2 3 2 5 5 3 5 5 10 16 13 14 15 13 10 11 9
3 3 2 1 5 6 5 3 3 4 2 2 1 5 11 2 0 2 1 4 2 2 8 4 3 4 8 10 7 11 15 19 12 13 7 6 12 10 6 7 7 10 10 12 7
2 2 3 5 2 3 3 4 6 7 7 7 6 2 6 4 1 3 5 8 4 3 2 4 3 4 7 11 6 5 20 19 17 7 12 11 20 5 6 7 10 15 10 11 10
Wind_Direction
235 242 250 263 274 284 297 305 314 324 331 335 336 337 338 338 331 327 287 323 4 333 324 323 335 356 336 40 103 127 55 231 249 185 257 310 334 283 296 134 152 295 167 167 151
233 238 242 252 264 274 287 300 310 319 326 331 333 335 338 339 326 311 24 61 358 338 340 345 339 348 356 338 153 121 165 213 213 227 286 297 255 295 323 326 273 43 76 135 149
233 236 240 245 255 267 277 290 303 313 320 327 332 333 339 341 312 240 89 10 338 331 330 318 311 341 331 353 221 192 217 214 256 253 257 286 292 247 250 291 205 186 156 157 164
235 236 239 242 248 257 270 281 292 304 312 319 328 333 345 358 310 178 273 321 328 324 333 349 355 355 307 271 266 306 240 227 283 239 328 267 269 289 253 252 175 194 165 164 179
235 238 239 241 245 251 260 273 285 294 305 316 331 339 7 13 250 275 296 313 332 1 10 359 337 33 324 300 301 213 279 298 263 289 254 250 252 256 272 271 267 150 162 176 186
235 234 238 241 245 250 258 266 280 288 299 312 331 346 44 277 245 277 284 295 300 311 274 69 290 263 236 254 295 313 283 288 288 275 264 256 248 191 266 198 197 173 187 190 185
233 235 236 238 242 249 256 266 274 282 296 307 321 329 245 251 256 269 278 284 281 267 285 251 249 212 353 323 309 284 300 306 274 257 253 178 281 233 237 271 207 198 199 197 196
230 233 235 237 237 239 247 256 263 275 290 298 302 307 251 261 278 277 278 275 268 264 248 252 263 237 186 254 322 318 282 282 323 293 268 141 279 270 271 204 239 209 212 203 191
228 229 228 233 234 235 238 248 257 267 279 281 288 185 266 284 255 295 249 240 259 240 231 227 189 199 179 294 346 243 265 249 312 241 250 171 291 284 296 266 261 203 207 203 205
226 226 227 226 230 230 229 240 256 271 274 259 260 321 258 260 239 286 279 216 276 54 174 175 169 164 149 157 241 206 237 233 247 285 13 309 263 278 289 260 258 265 218 205 212
222 223 224 225 222 222 207 198 272 249 216 209 188 232 188 237 279 229 103 81 174 193 200 196 169 197 207 208 237 280 280 275 271 278 299 275 278 276 281 285 277 274 202 225 229
220 225 227 225 218 215 199 202 179 115 286 227 248 237 258 278 272 259 273 202 177 199 167 210 235 210 207 222 233 236 259 272 281 270 243 266 274 260 271 263 277 312 335 269 255
228 222 225 217 212 198 196 190 190 30 269 244 213 237 231 206 243 238 206 191 216 201 191 216 210 184 194 222 229 226 229 255 263 289 286 264 273 241 267 231 319 15 337 300 260
228 226 234 204 186 177 178 195 188 135 281 265 237 254 175 189 270 228 223 209 208 219 193 240 212 216 186 216 209 245 219 246 266 273 274 108 287 288 262 280 8 350 347 330 322
228 222 222 200 155 168 184 197 189 147 268 178 191 164 160 177 314 96 191 196 227 180 170 220 171 209 223 228 207 231 250 249 254 255 250 221 272 282 72 271 353 350 341 342 334
226 205 206 179 158 171 166 153 139 158 240 254 167 157 149 219 285 101 109 183 203 249 260 230 258 182 203 188 190 325 294 291 279 179 258 177 182 232 206 200 345 356 353 11 24
223 198 194 185 172 160 153 142 140 206 334 231 200 164 192 180 217 216 143 200 170 171 230 238 238 235 200 248 260 170 130 295 295 185 254 184 202 259 160 89 96 85 32 43 61
203 199 187 189 176 161 169 98 208 223 228 353 335 195 193 161 229 195 150 192 247 250 62 200 281 220 202 217 204 219 193 185 205 207 284 305 233 261 129 112 104 106 119 97 88
196 183 178 179 177 169 163 212 212 211 190 249 298 236 241 218 218 184 213 208 201 198 189 200 260 261 236 224 194 206 217 193 253 137 326 247 82 350 114 115 128 115 105 105 122
145 120 55 173 174 175 203 219 217 192 149 187 224 194 226 211 184 181 189 235 227 197 195 233 269 252 234 114 213 194 155 158 173 191 209 229 225 219 182 171 165 143 127 109 128
90 121 8 212 171 197 217 222 224 226 201 213 226 260 219 159 16 282 240 326 283 220 194 203 187 276 232 194 168 149 176 63 113 173 179 169 252 219 183 175 172 181 205 186 174
104 111 315 164 191 128 160 182 17 299 203 249 283 197 216 106 269 259 287 314 325 350 181 203 196 234 231 238 323 120 158 153 158 185 233 147 277 107 133 122 127 177 198 217 196
81 83 349 46 219 183 128 247 240 196 265 173 229 230 174 163 233 248 222 324 355 337 224 168 219 187 309 296 26 153 158 154 115 105 194 168 246 149 135 167 161 156 184 214 238
117 118 16 58 238 108 163 170 184 332 260 263 309 214 206 225 208 225 240 300 354 358 337 333 296 201 229 239 146 157 181 183 129 133 161 209 195 200 187 185 187 185 195 199 221
67 145 70 179 186 128 149 99 112 148 26 8 249 251 212 210 210 218 240 187 203 81 299 24 253 283 280 248 129 87 89 255 244 171 167 256 238 242 208 204 203 216 213 217 228
128 153 123 38 133 135 161 168 128 133 83 47 353 1 19 263 12 141 172 209 257 81 192 210 222 212 256 256 225 236 255 267 241 234 243 239 252 255 222 217 227 236 224 230 236
121 31 101 167 168 148 175 172 206 159 189 185 154 26 340 355 313 294 272 286 276 285 226 188 193 195 250 251 154 226 232 237 243 208 214 224 243 229 199 193 223 244 232 237 233